Temp
-8 -8 -8 -7 -7 -7 -7 -7 -7 -7 -7 -7 -7 -7 -7 -7 -7 -7 -7 -7 -6 -6 -7 -7 -6 -6 -6 -7 -7 -7 -7 -8 -9 -9 -9 -9 -8 -9 -7 -8 -7 -7 -7 -6 -6
-8 -8 -8 -8 -8 -7 -7 -7 -7 -7 -7 -7 -7 -7 -7 -7 -7 -7 -7 -6 -7 -7 -7 -7 -7 -7 -7 -7 -7 -7 -7 -9 -9 -9 -9 -9 -9 -10 -8 -8 -7 -7 -7 -7 -7
-8 -8 -8 -8 -8 -8 -7 -7 -7 -7 -7 -7 -7 -7 -7 -7 -7 -7 -7 -6 -6 -6 -7 -7 -7 -7 -7 -7 -7 -7 -7 -10 -10 -10 -9 -9 -10 -10 -9 -8 -8 -9 -8 -8 -8
-8 -8 -8 -8 -8 -8 -8 -7 -7 -7 -7 -7 -7 -7 -7 -7 -7 -7 -7 -7 -7 -7 -7 -7 -7 -7 -7 -7 -8 -8 -8 -8 -11 -11 -9 -9 -10 -10 -10 -9 -10 -9 -9 -9 -9
-9 -8 -8 -8 -8 -8 -8 -8 -8 -8 -8 -8 -8 -8 -8 -8 -7 -7 -7 -7 -7 -7 -7 -7 -7 -7 -8 -8 -8 -8 -8 -8 -9 -11 -10 -11 -12 -11 -11 -10 -10 -10 -9 -9 -9
-9 -9 -8 -8 -8 -8 -8 -8 -8 -8 -8 -8 -8 -8 -8 -8 -8 -8 -7 -7 -7 -7 -7 -7 -7 -8 -8 -8 -8 -8 -8 -9 -8 -10 -12 -12 -12 -12 -11 -11 -11 -12 -11 -11 -10
-9 -8 -9 -9 -9 -8 -8 -8 -8 -8 -8 -8 -8 -8 -8 -8 -8 -8 -8 -8 -7 -8 -8 -8 -8 -8 -8 -8 -8 -8 -9 -9 -9 -9 -12 -13 -12 -12 -12 -12 -12 -12 -12 -10 -9
-9 -9 -9 -9 -9 -9 -9 -9 -8 -8 -8 -8 -8 -8 -8 -8 -8 -8 -8 -8 -8 -8 -8 -8 -8 -8 -8 -9 -9 -9 -9 -10 -11 -10 -12 -12 -12 -12 -12 -12 -12 -13 -12 -12 -10
-9 -9 -9 -9 -9 -9 -9 -9 -9 -9 -9 -8 -8 -8 -8 -8 -8 -8 -8 -8 -8 -8 -8 -8 -8 -9 -9 -9 -9 -10 -11 -11 -12 -12 -12 -13 -12 -12 -12 -12 -13 -12 -12 -11 -11
-9 -9 -9 -9 -9 -9 -9 -9 -9 -9 -9 -9 -9 -9 -8 -8 -8 -8 -8 -8 -8 -8 -8 -9 -9 -9 -10 -10 -11 -11 -11 -12 -11 -12 -11 -12 -12 -12 -12 -13 -13 -12 -12 -12 -11
-9 -9 -9 -9 -9 -9 -9 -9 -9 -9 -9 -9 -9 -9 -9 -9 -9 -9 -9 -9 -9 -9 -9 -9 -10 -10 -12 -11 -10 -11 -12 -12 -12 -12 -12 -11 -11 -11 -12 -12 -13 -12 -12 -12 -12
-10 -10 -10 -10 -10 -9 -9 -9 -9 -9 -9 -9 -9 -9 -9 -9 -9 -9 -9 -9 -9 -9 -9 -10 -10 -10 -10 -10 -10 -11 -11 -12 -12 -13 -12 -12 -11 -12 -12 -12 -13 -13 -13 -12 -12
-9 -10 -10 -10 -10 -10 -10 -10 -10 -9 -9 -9 -9 -9 -9 -9 -9 -9 -9 -9 -9 -10 -10 -10 -12 -9 -10 -10 -11 -11 -11 -12 -12 -13 -13 -13 -12 -12 -12 -12 -13 -13 -13 -12 -12
-9 -9 -9 -10 -10 -10 -10 -10 -10 -10 -10 -10 -10 -9 -9 -10 -9 -9 -10 -10 -10 -10 -10 -12 -9 -10 -10 -11 -11 -12 -12 -11 -12 -13 -13 -13 -12 -12 -13 -13 -13 -13 -13 -13 -13
-10 -9 -10 -10 -10 -10 -10 -11 -11 -11 -12 -10 -10 -10 -10 -10 -10 -10 -10 -10 -10 -10 -11 -13 -10 -10 -11 -12 -10 -13 -11 -12 -13 -13 -13 -13 -13 -13 -13 -13 -13 -13 -13 -14 -14
-10 -10 -10 -10 -10 -10 -11 -11 -11 -11 -12 -11 -10 -11 -11 -11 -11 -10 -10 -11 -11 -11 -11 -12 -10 -11 -11 -11 -11 -11 -12 -12 -12 -13 -13 -12 -12 -12 -12 -12 -14 -14 -14 -14 -14
-10 -11 -10 -11 -10 -10 -11 -11 -11 -11 -11 -11 -11 -11 -11 -11 -11 -11 -11 -11 -11 -11 -12 -11 -11 -11 -11 -11 -12 -12 -12 -13 -12 -12 -13 -12 -13 -13 -13 -13 -13 -14 -14 -14 -14
-11 -11 -11 -11 -11 -11 -11 -11 -11 -12 -12 -11 -11 -11 -12 -13 -12 -12 -12 -12 -12 -12 -13 -13 -13 -12 -11 -12 -12 -13 -13 -14 -13 -12 -12 -13 -13 -13 -13 -14 -14 -14 -14 -14 -14
-11 -11 -11 -11 -11 -11 -12 -12 -12 -12 -13 -11 -12 -12 -12 -14 -13 -12 -13 -14 -13 -12 -13 -14 -14 -13 -12 -12 -12 -13 -13 -14 -13 -14 -14 -13 -13 -14 -14 -14 -14 -14 -14 -14 -14
-11 -11 -11 -11 -12 -12 -12 -12 -12 -12 -12 -12 -12 -12 -14 -14 -13 -13 -14 -13 -13 -13 -13 -14 -13 -14 -12 -12 -12 -12 -13 -13 -14 -14 -14 -13 -13 -14 -14 -14 -14 -14 -14 -14 -14
-11 -11 -11 -11 -11 -12 -12 -12 -12 -12 -12 -12 -13 -14 -13 -14 -14 -14 -14 -14 -13 -13 -13 -13 -13 -14 -13 -13 -13 -14 -14 -15 -14 -14 -15 -15 -14 -14 -14 -14 -14 -14 -14 -14 -14
-12 -11 -12 -12 -11 -11 -12 -12 -12 -12 -12 -12 -13 -13 -13 -13 -14 -15 -15 -14 -13 -13 -13 -13 -14 -14 -14 -13 -13 -13 -13 -13 -14 -14 -15 -15 -15 -15 -15 -14 -15 -15 -14 -15 -15
-12 -12 -12 -12 -12 -12 -11 -12 -12 -12 -13 -13 -13 -13 -13 -13 -14 -14 -14 -13 -13 -13 -13 -13 -14 -13 -14 -14 -14 -14 -13 -14 -14 -14 -14 -15 -16 -16 -15 -15 -15 -15 -15 -15 -15
-13 -13 -12 -12 -12 -12 -12 -12 -12 -12 -12 -13 -13 -13 -13 -13 -13 -14 -13 -13 -13 -13 -13 -13 -14 -14 -14 -15 -14 -14 -14 -14 -14 -14 -15 -16 -15 -15 -14 -15 -15 -15 -15 -15 -15
-13 -13 -13 -13 -12 -13 -12 -12 -13 -12 -12 -13 -13 -13 -14 -14 -15 -15 -15 -13 -13 -13 -14 -14 -14 -14 -14 -14 -14 -14 -14 -14 -15 -15 -15 -15 -15 -16 -14 -15 -15 -15 -15 -15 -15
-13 -13 -13 -13 -13 -13 -13 -13 -13 -13 -12 -13 -13 -14 -14 -14 -14 -14 -15 -13 -14 -13 -14 -14 -14 -14 -14 -15 -14 -14 -14 -14 -15 -15 -15 -15 -16 -14 -15 -15 -15 -15 -15 -15 -15
-14 -13 -13 -13 -13 -13 -13 -13 -13 -13 -13 -13 -13 -14 -14 -14 -13 -14 -14 -14 -14 -14 -14 -14 -14 -15 -15 -15 -15 -14 -14 -14 -15 -15 -15 -15 -15 -15 -15 -15 -15 -15 -15 -16 -16
Height
5865 5864 5864 5864 5864 5865 5866 5867 5868 5869 5870 5871 5873 5874 5876 5878 5879 5880 5882 5883 5884 5885 5886 5888 5890 5893 5894 5896 5898 5900 5901 5904 5911 5915 5915 5907 5910 5906 5907 5906 5898 5899 5901 5897 5893
5863 5862 5863 5863 5863 5863 5864 5864 5865 5866 5867 5869 5870 5872 5874 5875 5876 5877 5879 5880 5881 5882 5883 5885 5887 5889 5892 5894 5896 5897 5898 5900 5908 5907 5909 5905 5902 5902 5906 5902 5892 5891 5897 5901 5900
5861 5861 5861 5861 5861 5862 5862 5862 5863 5864 5865 5866 5868 5869 5871 5872 5873 5875 5876 5877 5878 5879 5880 5882 5883 5885 5887 5889 5891 5893 5895 5898 5900 5895 5896 5897 5899 5898 5902 5896 5889 5889 5894 5896 5894
5860 5860 5859 5859 5859 5860 5860 5860 5861 5862 5863 5864 5865 5866 5867 5868 5871 5871 5872 5874 5875 5876 5877 5878 5880 5881 5883 5885 5886 5887 5888 5890 5893 5888 5888 5891 5893 5897 5896 5895 5889 5889 5892 5892 5883
5860 5859 5858 5857 5857 5857 5858 5858 5859 5860 5860 5862 5862 5863 5864 5865 5866 5867 5869 5870 5871 5872 5873 5875 5877 5878 5879 5880 5881 5882 5883 5883 5884 5885 5880 5884 5885 5890 5894 5892 5887 5886 5886 5881 5882
5858 5857 5857 5856 5855 5855 5855 5856 5856 5857 5858 5859 5860 5861 5862 5863 5863 5864 5866 5867 5868 5870 5871 5872 5874 5875 5876 5877 5878 5878 5879 5878 5877 5879 5877 5876 5878 5882 5888 5887 5885 5886 5870 5877 5876
5857 5856 5856 5855 5854 5853 5853 5853 5853 5854 5855 5856 5857 5857 5859 5860 5861 5862 5863 5864 5866 5867 5868 5869 5870 5872 5872 5873 5873 5873 5873 5873 5872 5872 5873 5871 5872 5876 5879 5875 5879 5882 5866 5871 5870
5855 5854 5854 5853 5852 5852 5851 5851 5851 5852 5853 5854 5854 5855 5856 5857 5858 5859 5860 5861 5863 5864 5865 5866 5868 5868 5869 5870 5869 5869 5869 5869 5869 5867 5868 5866 5874 5864 5868 5872 5877 5867 5857 5862 5867
5853 5852 5852 5851 5851 5850 5850 5850 5850 5850 5851 5851 5852 5852 5853 5854 5855 5856 5858 5859 5860 5861 5863 5865 5865 5866 5866 5866 5867 5867 5869 5870 5869 5864 5866 5866 5870 5857 5864 5866 5868 5858 5849 5860 5863
5850 5849 5849 5848 5848 5849 5849 5849 5848 5849 5849 5850 5850 5851 5851 5852 5853 5854 5855 5856 5858 5859 5860 5862 5862 5862 5863 5864 5872 5873 5869 5868 5870 5864 5862 5866 5858 5857 5858 5860 5853 5854 5853 5854 5855
5846 5846 5846 5845 5845 5846 5847 5847 5848 5847 5847 5848 5849 5848 5849 5850 5850 5851 5852 5853 5855 5856 5857 5858 5859 5860 5863 5861 5860 5862 5863 5867 5865 5859 5858 5856 5853 5854 5852 5850 5849 5849 5849 5847 5849
5842 5842 5842 5842 5842 5843 5843 5844 5844 5845 5845 5845 5846 5846 5847 5847 5848 5849 5850 5852 5852 5853 5854 5856 5857 5855 5856 5856 5857 5858 5858 5859 5860 5856 5853 5847 5848 5847 5846 5845 5844 5844 5843 5843 5842
5839 5838 5838 5839 5839 5839 5840 5841 5841 5841 5842 5843 5843 5843 5845 5846 5846 5847 5848 5848 5849 5850 5851 5853 5853 5852 5853 5853 5853 5854 5854 5857 5857 5854 5848 5844 5840 5843 5842 5841 5840 5839 5837 5837 5836
5834 5835 5834 5835 5836 5836 5837 5838 5838 5838 5839 5840 5841 5841 5842 5842 5843 5844 5844 5846 5847 5847 5849 5850 5848 5849 5849 5849 5850 5854 5848 5848 5848 5847 5849 5842 5847 5834 5838 5836 5834 5834 5831 5830 5829
5828 5828 5830 5830 5831 5832 5834 5834 5835 5836 5838 5839 5838 5838 5839 5840 5841 5841 5842 5842 5843 5844 5847 5847 5845 5845 5846 5845 5846 5845 5842 5843 5844 5844 5845 5845 5838 5833 5829 5829 5828 5827 5826 5823 5822
5821 5821 5824 5825 5826 5828 5829 5830 5832 5835 5834 5834 5834 5835 5836 5837 5837 5838 5838 5839 5840 5841 5841 5840 5841 5841 5839 5840 5840 5839 5839 5839 5838 5840 5841 5841 5838 5827 5822 5814 5822 5820 5819 5818 5816
5814 5816 5818 5819 5821 5823 5824 5826 5829 5830 5830 5831 5831 5832 5833 5833 5833 5834 5834 5835 5836 5838 5837 5835 5835 5835 5835 5835 5835 5835 5835 5838 5841 5839 5834 5831 5833 5824 5821 5819 5816 5814 5812 5810 5808
5811 5811 5813 5814 5816 5818 5820 5822 5824 5826 5827 5827 5828 5829 5830 5830 5830 5830 5831 5831 5831 5833 5835 5837 5835 5829 5831 5831 5832 5831 5832 5834 5834 5836 5837 5825 5828 5816 5817 5815 5809 5807 5804 5801 5799
5809 5810 5809 5810 5812 5813 5816 5817 5820 5820 5822 5823 5825 5826 5827 5828 5828 5827 5827 5830 5827 5828 5830 5832 5832 5824 5826 5826 5828 5827 5827 5827 5824 5825 5825 5826 5818 5815 5810 5806 5804 5801 5798 5796 5794
5806 5806 5807 5807 5807 5809 5811 5813 5813 5815 5817 5818 5821 5822 5825 5825 5824 5823 5826 5823 5823 5823 5823 5823 5825 5821 5821 5822 5822 5821 5821 5821 5821 5821 5820 5821 5818 5806 5803 5801 5799 5796 5793 5791 5788
5800 5802 5803 5803 5804 5805 5806 5807 5808 5810 5813 5814 5816 5818 5819 5825 5822 5824 5824 5818 5819 5819 5818 5818 5818 5820 5816 5816 5817 5816 5816 5815 5812 5813 5812 5812 5812 5802 5795 5793 5792 5788 5787 5784 5781
5794 5796 5797 5798 5800 5800 5801 5801 5804 5805 5807 5809 5810 5811 5812 5814 5815 5817 5818 5812 5815 5814 5814 5812 5813 5812 5813 5810 5811 5810 5810 5808 5806 5806 5807 5807 5804 5795 5791 5787 5784 5780 5778 5775 5773
5787 5790 5792 5793 5794 5794 5795 5796 5797 5799 5800 5803 5804 5804 5806 5808 5809 5809 5807 5809 5808 5808 5807 5808 5807 5807 5807 5806 5805 5804 5803 5802 5800 5799 5799 5797 5797 5787 5785 5781 5778 5773 5770 5767 5764
5782 5784 5785 5786 5787 5788 5789 5791 5792 5793 5794 5796 5797 5798 5800 5800 5801 5801 5800 5802 5802 5801 5801 5801 5802 5801 5801 5801 5800 5799 5797 5796 5794 5793 5792 5792 5788 5778 5779 5775 5771 5768 5763 5758 5754
5775 5777 5778 5780 5780 5781 5783 5784 5786 5787 5788 5789 5791 5793 5794 5794 5795 5795 5795 5795 5795 5796 5795 5795 5795 5794 5794 5794 5795 5794 5793 5790 5788 5787 5786 5785 5781 5773 5769 5767 5763 5759 5755 5749 5744
5767 5769 5771 5772 5774 5775 5775 5778 5779 5780 5782 5783 5785 5786 5787 5787 5788 5789 5788 5787 5789 5790 5788 5789 5788 5788 5789 5789 5789 5789 5787 5785 5782 5780 5778 5776 5773 5767 5765 5760 5755 5750 5746 5741 5735
5758 5760 5762 5765 5766 5768 5768 5770 5771 5772 5774 5776 5777 5779 5780 5779 5782 5781 5782 5782 5783 5784 5783 5783 5782 5783 5785 5782 5783 5783 5782 5778 5776 5773 5772 5769 5762 5759 5755 5753 5748 5743 5737 5732 5727
Wind_Speed
8 8 9 9 9 11 14 16 16 17 18 18 18 18 20 20 19 18 15 15 14 16 17 17 15 15 15 15 15 16 17 14 12 14 15 21 14 21 24 26 35 32 32 36 28
7 9 10 10 11 10 11 13 15 16 17 19 19 16 16 19 21 20 17 15 15 15 15 17 17 16 16 17 17 18 18 14 12 17 21 20 25 21 12 26 32 39 39 35 30
7 8 9 10 10 11 11 11 12 13 15 17 20 21 20 20 21 18 18 18 17 17 18 18 18 19 18 18 19 19 20 15 19 28 31 28 17 23 13 20 26 22 25 26 31
6 7 8 9 11 11 11 12 11 11 11 12 15 19 21 21 21 21 21 21 19 19 19 18 18 18 18 18 19 20 21 21 16 26 30 26 24 17 20 21 19 27 31 34 36
5 5 6 8 9 12 11 12 12 12 12 11 11 12 14 17 17 17 16 17 17 16 16 16 16 17 17 18 21 21 22 25 28 23 34 22 26 18 19 14 18 29 28 38 39
6 5 5 6 7 9 12 12 13 12 12 13 14 14 14 13 13 14 14 14 14 15 15 16 16 16 17 18 19 22 22 27 28 28 27 25 25 20 21 32 27 23 42 39 40
8 7 6 6 6 7 9 11 13 13 12 13 14 16 16 16 15 15 16 16 16 15 15 15 15 15 15 16 16 18 20 22 24 25 23 25 22 22 25 24 18 22 43 42 45
11 10 8 7 7 7 7 9 10 11 12 12 13 14 15 16 16 16 16 16 16 15 15 14 13 13 13 12 13 14 16 13 15 12 15 21 8 33 30 29 20 33 43 40 40
12 12 12 10 9 8 7 8 8 9 9 10 13 14 14 15 15 16 16 15 15 15 13 12 11 10 10 9 9 9 5 5 14 14 6 13 11 37 31 28 21 36 46 32 31
14 14 13 13 12 10 9 9 9 9 9 9 10 11 12 13 13 14 14 14 14 14 13 11 10 9 8 7 3 11 5 11 10 15 7 12 25 26 26 21 32 30 31 31 27
15 14 14 14 14 13 12 11 11 11 11 10 11 12 12 11 12 12 12 14 14 14 13 11 11 9 9 14 15 19 11 10 9 20 19 23 24 20 24 29 29 28 28 32 25
13 14 13 14 14 14 14 13 12 12 12 11 11 12 12 13 14 14 14 14 14 14 13 11 12 16 13 13 13 13 12 11 14 21 19 28 22 21 22 23 25 29 31 30 25
14 13 13 14 15 15 14 14 14 13 13 12 12 12 11 12 13 12 13 13 13 12 12 11 16 10 14 14 13 13 13 12 13 20 26 26 31 22 22 25 27 29 31 33 30
18 16 14 14 14 15 16 15 13 14 14 12 11 12 12 11 12 11 11 10 12 14 11 14 15 14 14 15 14 4 23 18 20 22 15 29 20 34 28 30 31 30 30 29 27
20 19 16 14 14 13 14 15 14 12 6 10 11 10 10 11 11 11 12 11 11 14 11 15 17 14 10 17 12 18 25 21 14 14 16 22 22 34 31 33 33 32 33 32 31
20 21 18 17 16 13 14 15 15 12 13 12 10 9 9 9 11 12 13 12 12 13 14 19 16 17 20 18 18 21 18 19 17 15 19 20 25 31 34 34 25 34 36 36 37
17 20 20 20 19 16 16 15 15 13 18 16 13 11 10 10 11 12 12 11 11 11 15 19 19 21 20 19 18 16 13 11 15 21 21 27 23 32 37 44 47 43 41 42 41
11 12 17 17 19 19 18 17 18 17 14 17 12 11 11 12 12 13 11 12 11 10 13 7 16 22 16 16 14 16 14 11 16 15 17 20 22 34 35 35 32 35 35 35 38
10 8 9 13 16 18 19 20 18 20 21 16 14 14 13 14 13 15 13 8 18 12 12 7 11 26 19 16 15 12 12 18 21 17 21 16 30 33 35 32 29 29 30 29 30
12 12 10 10 13 16 19 20 24 22 19 18 16 15 13 14 17 16 13 18 17 16 16 18 17 22 19 17 17 17 18 18 13 14 17 14 18 27 36 30 25 27 28 28 29
16 15 15 12 12 15 17 22 23 23 21 21 20 19 18 15 19 12 12 26 18 17 19 21 21 17 22 18 15 17 15 18 21 21 19 19 19 31 39 41 33 31 29 30 31
16 16 17 17 16 15 17 21 19 22 23 23 24 23 22 23 21 18 20 28 18 22 21 23 21 21 20 24 19 20 21 23 25 23 17 20 24 32 35 34 30 32 30 30 30
16 18 17 18 20 20 19 18 19 21 23 24 25 26 24 23 24 23 27 22 24 24 24 23 23 22 20 20 21 20 21 21 21 21 20 22 23 33 32 29 29 31 33 34 35
18 18 18 19 20 23 22 20 20 20 22 22 25 23 24 26 25 26 27 22 23 25 24 23 22 23 21 22 20 20 20 21 22 21 19 15 23 35 28 29 33 34 36 38 38
23 21 19 19 21 22 22 25 23 23 24 23 24 24 25 28 24 23 26 22 24 23 25 24 23 23 22 21 21 22 21 22 23 24 24 23 26 34 34 32 35 36 36 37 38
26 25 24 22 20 22 24 24 26 28 25 25 25 25 27 28 26 25 27 26 25 22 25 22 22 21 19 22 21 24 24 24 25 25 26 27 29 33 30 34 35 35 35 37 38
31 29 29 27 25 23 24 26 28 29 28 29 28 28 27 33 28 30 31 29 27 26 25 24 23 21 19 24 23 25 23 28 26 24 24 27 33 34 35 33 33 33 34 35 36
Wind_Direction
271 266 258 253 250 245 241 242 242 240 237 234 235 237 232 230 233 234 247 246 245 244 243 243 243 246 248 247 247 246 249 247 247 266 259 272 250 273 242 252 256 252 239 250 262
276 265 260 258 254 251 245 244 243 243 238 233 231 234 233 233 234 240 244 247 245 246 243 243 247 248 249 250 251 252 253 250 246 230 230 252 264 260 277 266 251 252 251 251 254
280 267 260 253 255 253 250 248 246 245 242 237 234 236 237 239 240 241 246 251 252 250 249 251 254 258 258 256 256 254 253 239 257 244 245 257 265 281 246 275 252 263 252 247 250
289 279 267 262 252 251 250 250 248 245 243 239 238 238 239 241 246 244 245 248 250 254 256 257 256 257 259 261 262 264 263 254 244 261 268 262 263 258 272 249 260 259 255 249 253
303 290 281 266 261 251 250 247 246 243 242 239 238 237 236 239 242 247 246 245 246 248 251 254 256 260 261 264 266 267 265 266 259 254 273 264 255 232 250 254 262 264 256 249 250
313 307 295 280 264 256 250 248 246 243 242 240 239 237 238 238 237 241 243 244 245 247 250 253 255 257 262 265 268 269 268 265 270 264 265 266 260 259 255 245 254 259 267 245 260
307 308 304 297 276 261 251 249 248 246 247 247 246 245 245 245 244 242 242 244 246 248 250 252 256 258 262 262 264 264 268 268 269 266 258 260 265 267 244 240 236 259 261 253 253
294 294 292 287 285 272 259 251 251 250 248 250 250 250 248 247 246 246 246 248 247 247 248 250 253 256 254 254 256 264 273 270 286 281 253 272 264 249 251 253 258 250 260 258 258
281 283 283 280 276 273 267 261 255 249 245 246 247 246 246 246 244 244 242 242 242 242 243 250 254 252 245 247 270 285 233 276 229 272 236 263 230 256 262 268 251 235 253 260 260
277 271 273 273 270 269 266 258 257 254 251 246 250 249 246 247 244 243 243 240 238 238 241 245 246 242 238 233 168 267 245 242 223 273 249 235 261 269 272 258 246 262 260 264 256
270 267 264 266 267 262 261 259 254 252 250 250 247 251 249 243 242 240 237 238 241 241 242 247 244 232 230 233 231 213 214 219 242 253 272 270 284 287 272 268 267 266 258 262 268
279 266 259 258 260 263 260 260 260 257 253 251 249 249 248 247 248 247 245 243 240 240 241 242 249 247 249 249 242 235 236 240 239 251 275 284 287 281 278 273 265 261 263 270 275
284 279 262 257 257 258 257 256 257 257 257 252 252 252 250 251 252 248 246 243 237 237 234 228 235 257 257 261 256 256 243 243 246 248 272 276 293 289 289 283 277 270 270 273 276
275 271 266 261 255 256 253 253 253 253 255 252 254 254 255 254 250 244 242 239 233 238 241 239 261 263 263 265 261 267 269 252 252 261 268 289 288 292 288 284 285 284 279 283 281
264 262 256 255 253 253 251 247 248 252 256 255 253 251 250 249 250 243 250 252 251 253 247 253 260 261 260 240 264 229 258 264 257 256 268 273 277 278 279 282 285 287 291 290 291
259 255 246 243 241 241 242 242 240 239 249 256 251 247 254 253 252 257 257 255 256 257 254 253 266 261 256 272 264 260 263 270 277 276 274 274 265 276 282 267 284 284 284 281 281
269 254 248 240 238 235 232 233 230 224 248 254 253 252 248 246 258 264 269 265 265 275 289 267 273 272 270 271 277 270 272 289 285 273 272 265 265 265 276 278 278 277 276 273 270
311 261 247 241 239 233 230 226 223 224 239 245 248 243 245 246 259 266 266 273 262 249 236 263 288 281 276 272 240 250 259 251 261 266 257 299 292 268 277 278 277 276 278 274 269
286 295 265 246 240 233 232 229 224 223 220 235 234 233 234 230 250 261 264 224 255 268 234 248 252 270 275 272 266 258 270 260 278 273 275 284 278 282 290 280 280 282 282 281 278
261 271 277 261 244 236 232 230 230 234 232 227 225 229 220 240 245 251 252 256 261 264 263 257 248 274 278 271 269 265 266 279 292 293 292 269 276 270 281 284 295 289 286 285 281
255 258 260 261 255 243 235 233 233 236 236 231 223 224 214 218 239 232 238 259 256 259 262 265 270 268 285 274 252 275 283 293 283 261 265 269 268 273 277 283 295 292 292 290 288
248 252 252 251 249 247 238 240 238 238 236 234 235 237 234 233 240 233 242 254 259 263 266 270 272 273 262 278 268 268 278 277 274 280 266 269 272 276 280 289 295 295 296 295 291
246 250 247 246 247 244 245 238 237 236 236 236 238 240 242 245 243 241 246 259 259 265 270 275 277 279 271 277 263 272 279 283 282 281 283 269 276 280 288 294 295 297 298 297 297
244 248 246 245 244 246 247 243 242 239 239 236 239 243 244 247 248 255 259 253 260 264 269 274 276 273 264 251 273 280 282 288 287 286 285 279 278 280 293 295 294 295 296 298 299
246 247 250 249 247 248 247 247 245 245 240 236 240 243 247 248 249 253 257 264 262 267 271 272 274 266 260 257 267 276 284 293 293 288 284 283 282 280 303 298 298 299 301 301 299
254 250 249 251 250 247 245 244 244 246 246 245 240 242 244 251 252 247 259 265 265 263 270 272 270 263 256 263 269 277 284 291 294 289 284 283 285 292 296 297 301 304 302 299 298
253 251 250 251 250 250 251 246 246 245 248 246 246 241 246 248 257 259 263 269 269 272 269 271 265 261 260 265 274 279 289 292 295 292 287 288 292 299 301 302 304 302 300 300 298